Regional Weather Roundup
Issued by NWS Goodland, KS

Home | Current Version | Previous Version | Text Only | Print | Product List | Glossary On
Versions: 1 2 3 4 5 6 7 8 9 10 11 12 13 14 15 16 17 18 19 20 21 22 23 24 25 26 27 28 29 30 31 32 33 34 35 36 37 38 39 40 41 42 43 44 45 46 47 48 49 50
000
ASUS43 KGLD 300108
RWRGLD

GOODLAND FORECAST AREA HOURLY WEATHER ROUNDUP
NATIONAL WEATHER SERVICE GOODLAND KS
700 PM MDT FRI AUG 29 2014

...OFFICIAL OBSERVATIONS...

CITY           SKY/WX    TMP DP  RH WIND       PRES   REMARKS
GOODLAND KS    CLEAR     75  55  49 NE5       29.98
HILL CITY KS   CLEAR     80  59  48 NE5       29.88R
IMPERIAL NEB   PTCLDY    75  59  57 NW6       29.95R
MCCOOK NEB     CLEAR     80  58  46 CALM      29.90R
AKRON CO       MOCLDY    71  54  54 NW6       30.06R
BURLINGTON CO  PTCLDY    76  50  40 NE6       30.02R
LIMON CO       CLOUDY    69  45  41 NW6       30.14R
$$

...UNOFFICIAL OBSERVATIONS...

CITY           SKY/WX    TMP DP  RH WIND       PRES   REMARKS
COLBY KS       CLEAR     75  61  60 NE5       29.95S
GOVE KS          N/A     81  32  17 CALM        N/A
NORTON KS      CLEAR     75  48  38 N3        29.88R
SHARON SPRINGS   N/A     77  54  44 CALM        N/A
WAKEENEY KS      N/A     78  48  33 MISG        N/A
KIT CARSON CO    N/A     79  47  32 CALM        N/A
YUMA CO          N/A     74  55  51 CALM        N/A
$$


USA.gov is the U.S. government's official web portal to all federal, state and local government web resources and services.